Flag for China Weather past 2 weeks in Hohhot, Inner Mongolia, China

Now
59 °F

Clear.


Feels Like: 58 °F
Forecast: 47 / 75 °F
Wind: 6 mph from North

Location: Hohhot Airport

Current Time: Apr 28, 2015 at 12:19:18 AM

Latest Report: Apr 28, 2015 at 12:00 AM


Visibility: 10 mi

Pressure: 29.92 "Hg

Humidity: 25%

Dew point: 23 °F

Location of HohhotLocation

Historic Weather in Hohhot — Graph

°F

Hohhot temperature yesterday

Maximum temperature yesterday: 75 °F (at 2:00 PM)
Minimum temperature yesterday: 48 °F (at 3:00 AM)
Average temperature yesterday: 61 °F

Past Weeks' High & Low Weather Summary

 TemperatureHumidityPressure
High75 °F (Apr 25, 1:00 PM)88% (Apr 18, 4:00 PM)30.48 "Hg (Apr 18, 4:00 PM)
Low25 °F (Apr 13, 3:00 AM)5% (Apr 24, 11:00 AM)29.65 "Hg (Apr 15, 4:00 AM)
Average52 °F29%30.01 "Hg
* Reported Apr 12 11:00 PM — Apr 27 11:00 PM, Hohhot, Weather by CustomWeather, © 2015

Note: Actual official high and low records may vary slightly from our data, if they occured in-between our weather recording intervals... More about our weather records

Advertising

Hohhot weather history for previous 24 hours

 ConditionsComfort  
Time TempWeatherWind HumidityBarometerVisibility
11:00 PM
Mon, Apr 27
61 °FClear.13 mph22%29.89 "Hg10 mi
10:00 PM63 °FPassing clouds.13 mph19%29.89 "HgN/A
9:00 PM64 °FPassing clouds.8 mph19%29.89 "HgN/A
8:00 PM64 °FPassing clouds.10 mph19%29.83 "HgN/A
7:00 PM66 °FSunny.20 mph15%29.83 "Hg10 mi
6:00 PM70 °FSunny.17 mph12%29.80 "Hg10 mi
5:00 PM70 °FPassing clouds.17 mph13%29.77 "HgN/A
4:00 PM72 °FScattered clouds.20 mph13%29.77 "HgN/A
3:00 PM73 °FScattered clouds.22 mph13%29.77 "HgN/A
2:00 PM75 °FPassing clouds.22 mph10%29.74 "HgN/A
1:00 PM72 °FPassing clouds.8 mph27%29.77 "HgN/A
12:00 PM68 °FPassing clouds.6 mph35%29.80 "HgN/A
11:00 AM66 °FSunny.6 mph37%29.83 "Hg10 mi
10:00 AM63 °FPassing clouds.8 mph42%29.83 "HgN/A
9:00 AM59 °FPassing clouds.3 mph48%29.86 "HgN/A
8:00 AM57 °FSunny.1 mph48%29.86 "Hg10 mi
7:00 AM52 °FSunny.3 mph58%29.86 "Hg10 mi
6:00 AM54 °FPassing clouds.3 mph51%29.86 "HgN/A
5:00 AM52 °FClear.6 mph54%29.86 "Hg10 mi
4:00 AM50 °FClear.6 mph58%29.83 "Hg10 mi
3:00 AM48 °FClear.3 mph58%29.86 "Hg10 mi
2:00 AM50 °FClear.3 mph54%29.86 "Hg10 mi
1:00 AM52 °FPassing clouds.3 mph50%29.86 "HgN/A
12:00 AM52 °FClear.6 mph41%29.86 "Hg10 mi
Weather by CustomWeather, © 2015

See weather overviewHow to use our weather pages